Lorain / Elyria, OH

11:29 PM EDT on August 24, 2019 (GMT -0400)
Lorain County Regional

Weather History for KLPR - July, 2019

Change the Weather History Date:

Sunday, July 21, 2019

  Actual Average (KCLE) Record (KCLE)
Temperature  
Mean Temperature 78 °F -  
Max Temperature 89 °F 82 °F 97 °F (1952)
Min Temperature 69 °F 62 °F 46 °F (1966)
Cooling Degree Days 13    
Growing Degree Days 28 (Base 50)    
Moisture  
Dew Point 66 °F    
Average Humidity 71    
Maximum Humidity 84    
Minimum Humidity 51    
Precipitation  
Precipitation 0.68 in - - ()
Sea Level Pressure  
Sea Level Pressure 29.93 in    
Wind  
Wind Speed 7 mph (ENE)    
Max Wind Speed 16 mph    
Max Gust Speed -    
Visibility 9 miles    
Events Rain , Thunderstorm    
Averages and records for this station are not official NWS values.
T = Trace of Precipitation, MM = Missing Value Source: NWS Daily Summary

Daily Weather History Graph

Daily Weather History Graph

Search for Another Location

Airport or City:

Astronomy

Jul. 21, 2019 Rise Set
Actual Time 6:13 AM EDT 8:56 PM EDT
Civil Twilight 5:41 AM EDT 9:28 PM EDT
Nautical Twilight 5:00 AM EDT 10:08 PM EDT
Astronomical Twilight 4:14 AM EDT 10:54 PM EDT
Moon 11:47 PM EDT (7/21) 10:34 AM EDT (7/21)
Length of Visible Light 15h 47m
Length of Day
14h 43m
Waning Gibbous, 80% of the Moon is Illuminated
Jul 21
Waning Gibbous
Jul 24
Last Quarter
Jul 31
New
Aug 7
First Quarter
Aug 15
Full

Hourly Weather History & Observations

Time (EDT) Temp. Heat Index Dew Point Humidity Pressure Visibility Wind Dir Wind Speed Gust Speed Precip Events Conditions
12:53 AM 79.0 °F - 66.0 °F 64% 29.85 in 10.0 mi SSW 8.1 mph - N/A   Clear
1:53 AM 75.9 °F - 64.9 °F 69% 29.87 in 10.0 mi SW 9.2 mph - N/A   Clear
2:53 AM 79.0 °F - 69.1 °F 72% 29.88 in 10.0 mi WSW 10.4 mph - N/A   Clear
3:53 AM 81.0 °F 84.4 °F 70.0 °F 69% 29.88 in 10.0 mi West 8.1 mph - N/A   Overcast
4:34 AM 78.1 °F - 70.0 °F 76% 29.92 in 10.0 mi NNE 11.5 mph - N/A   Mostly Cloudy
4:53 AM 77.0 °F - 70.0 °F 79% 29.90 in 10.0 mi NNE 9.2 mph - N/A   Mostly Cloudy
5:33 AM 75.9 °F - 69.1 °F 79% 29.93 in 10.0 mi NE 5.8 mph - N/A   Scattered Clouds
5:53 AM 75.9 °F - 69.1 °F 79% 29.92 in 10.0 mi ENE 4.6 mph - N/A   Mostly Cloudy
6:07 AM 75.0 °F - 68.0 °F 79% 29.94 in 10.0 mi East 4.6 mph - N/A   Scattered Clouds
6:53 AM 75.0 °F - 68.0 °F 79% 29.92 in 10.0 mi ESE 3.5 mph - N/A   Mostly Cloudy
7:42 AM 75.9 °F - 68.0 °F 76% 29.95 in 10.0 mi Calm Calm - N/A   Mostly Cloudy
7:53 AM 77.0 °F - 69.1 °F 76% 29.94 in 10.0 mi Calm Calm - N/A   Overcast
8:09 AM 77.0 °F - 68.0 °F 74% 29.96 in 10.0 mi Calm Calm - N/A   Mostly Cloudy
8:53 AM 78.1 °F - 68.0 °F 71% 29.95 in 10.0 mi North 4.6 mph - N/A   Overcast
9:38 AM 80.1 °F 82.1 °F 66.0 °F 62% 29.96 in 10.0 mi ENE 4.6 mph - N/A   Scattered Clouds
9:53 AM 80.1 °F 81.9 °F 64.9 °F 60% 29.94 in 10.0 mi Calm Calm - N/A   Partly Cloudy
10:53 AM 82.0 °F 84.1 °F 66.0 °F 58% 29.94 in 10.0 mi NW 4.6 mph - N/A   Clear
11:34 AM 82.9 °F 85.4 °F 66.9 °F 58% 29.96 in 10.0 mi NNW 3.5 mph - N/A   Mostly Cloudy
11:44 AM 82.9 °F 85.4 °F 66.9 °F 58% 29.97 in 10.0 mi NW 4.6 mph - N/A   Scattered Clouds
11:53 AM 84.9 °F 88.2 °F 68.0 °F 57% 29.94 in 10.0 mi Calm Calm - N/A   Partly Cloudy
12:53 PM 87.1 °F 89.9 °F 66.9 °F 51% 29.93 in 10.0 mi NE 4.6 mph - N/A   Partly Cloudy
1:53 PM 87.1 °F 90.6 °F 68.0 °F 53% 29.91 in 10.0 mi North 5.8 mph - N/A   Scattered Clouds
2:53 PM 86.0 °F 90.7 °F 70.0 °F 59% 29.90 in 10.0 mi North 10.4 mph - N/A   Clear
3:53 PM 82.9 °F 85.8 °F 68.0 °F 60% 29.90 in 10.0 mi NE 16.1 mph - N/A   Clear
4:53 PM 80.1 °F 82.1 °F 66.0 °F 62% 29.89 in 10.0 mi NE 13.8 mph - N/A   Clear
5:53 PM 82.0 °F 84.5 °F 66.9 °F 60% 29.89 in 10.0 mi ENE 12.7 mph - N/A   Scattered Clouds
6:53 PM 78.1 °F - 66.0 °F 66% 29.91 in 10.0 mi East 12.7 mph - N/A   Mostly Cloudy
7:53 PM 75.9 °F - 63.0 °F 64% 29.94 in 10.0 mi East 9.2 mph - N/A Thunderstorm Mostly Cloudy
8:23 PM 72.0 °F - 64.9 °F 78% 29.96 in 1.5 mi SSE 9.2 mph - 0.13 in Rain , Thunderstorm Heavy Rain
8:31 PM 71.1 °F - 64.9 °F 81% 29.95 in 0.2 mi East 8.1 mph - 0.57 in Rain , Thunderstorm Heavy Rain
8:38 PM 71.1 °F - 64.9 °F 81% 29.94 in 0.8 mi East 8.1 mph - 0.62 in Rain , Thunderstorm Heavy Rain
8:42 PM 71.1 °F - 66.0 °F 84% 29.94 in 2.0 mi East 8.1 mph - 0.62 in Rain , Thunderstorm Light Rain
8:49 PM 71.6 °F - 66.2 °F 83% 29.94 in 9.0 mi East 6.9 mph - 0.62 in Rain , Thunderstorm Light Rain
8:53 PM 72.0 °F - 66.0 °F 81% 29.92 in 10.0 mi ESE 6.9 mph - 0.62 in Rain , Thunderstorm Light Rain
9:03 PM 72.0 °F - 64.9 °F 78% 29.93 in 10.0 mi East 5.8 mph - 0.00 in   Partly Cloudy
9:53 PM 72.0 °F - 64.9 °F 78% 29.92 in 10.0 mi NNE 10.4 mph - 0.00 in   Mostly Cloudy
10:40 PM 70.0 °F - 63.0 °F 78% 29.94 in 10.0 mi Calm Calm - N/A   Scattered Clouds
10:48 PM 69.8 °F - 62.6 °F 78% 29.95 in 10.0 mi SE 3.5 mph - N/A   Mostly Cloudy
10:53 PM 70.0 °F - 63.0 °F 78% 29.93 in 10.0 mi SE 4.6 mph - N/A   Mostly Cloudy
11:01 PM 70.0 °F - 63.0 °F 78% 29.95 in 10.0 mi SSE 4.6 mph - N/A   Scattered Clouds
11:50 PM 69.8 °F - 62.6 °F 78% 29.95 in 10.0 mi ENE 3.5 mph - 0.06 in Rain Light Rain
11:53 PM 70.0 °F - 63.0 °F 78% 29.93 in 10.0 mi NE 3.5 mph - 0.06 in Rain Light Rain